Regional Weather Roundup
Issued by NWS Wakefield, VA

Home | Current Version | Previous Version | Text Only | Print | Product List | Glossary Off
Versions: 1 2 3 4 5 6 7 8 9 10 11 12 13 14 15 16 17 18 19 20 21 22 23 24 25 26 27 28 29

000
ASUS41 KAKQ 031716
RWRAKQ

REGIONAL WEATHER ROUNDUP
NATIONAL WEATHER SERVICE WAKEFIELD VA
1200 PM EST SAT DEC 03 2016

Note: "fair" indicates few or no clouds below 12,000 feet with no
significant weather and/or obstructions to visibility. * = Denotes
station may not report precipitation (e.g., rain,snow,etc.),
thunder or fog.

VAZ042-051-052>054-056-031800-
NORTHERN VIRGINIA

CITY           SKY/WX    TMP DP  RH WIND       PRES   REMARKS
WASH NATIONAL  MOSUNNY   50  30  46 NW15G21   30.23S
DULLES         MOSUNNY   47  28  47 NW18G26   30.23F
FORT BELVOIR   SUNNY     49  28  43 NW21      30.23S
QUANTICO       MOSUNNY   50  27  40 N15G32    30.25F
FREDERICKSBRG* MOSUNNY   48  31  50 NW13G21   30.24S
STAFFORD*      MOSUNNY   47  29  48 NW13G21   30.28S
WARRENTON      MOSUNNY   51  23  34 NW14      30.24S
CULPEPER*      MOSUNNY   50  31  47 CALM      30.24F
MANASSAS*      SUNNY     46  28  49 NW22G29   30.24
LEESBURG*      CLOUDY    46  32  57 NW17      30.25S
WINCHESTER     SUNNY     41  28  60 W14       30.24S
FRONT ROYAL*   FAIR      45  30  57 NW8       30.23F
LURAY*         FAIR      46  32  57 W9G17     30.23F
$$

VAZ048-049-060>072-079>083-031800-
CENTRAL AND SOUTH CENTRAL VIRGINIA

CITY           SKY/WX    TMP DP  RH WIND       PRES   REMARKS
RICHMOND       PTSUNNY   50  28  42 N15       30.23F
CHESTERFIELD*  FAIR      52  21  30 N9        30.26F
PETERSBURG*    PTSUNNY   48  28  45 NW9       30.25F
HANOVER        MOSUNNY   48  27  44 NW9       30.25F
TAPPAHANNOCK*  MOSUNNY   50  23  34 NW12G17   30.23F
QUINTON*       FAIR      48  30  49 NW10G18   30.23F
CHARLOTTSVILLE MOSUNNY   48  28  46 NW6       30.24F
GORDONSVILLE*  FAIR      48  29  49 W5        30.23F
ORANGE*          N/A     50  30  46 CALM      30.26F
LOUISA*        PTSUNNY   52  34  50 NW7       30.22F
BUMPASS*       FAIR      47  30  51 NW6       30.24F
FARMVILLE*     MOSUNNY   47  30  50 SW6       30.25F
CREWE*         FAIR      47  29  51 NW8       30.26F
FORT PICKETT*  FAIR      47  22  37 W10       30.25F
CHASE CITY*    FAIR      45  25  45 NW5       30.27F
CLARKSVILLE*   FAIR      46  28  49 N8        30.26F
SOUTH HILL*    MOSUNNY   47  29  49 NW5       30.32F
LAWRENCEVILLE* FAIR      47  29  48 NW3       30.26F
EMPORIA*       PTSUNNY   48  30  49 W9        30.27F
$$

VAZ088>098-031800-
SOUTHEAST VIRGINIA

CITY           SKY/WX    TMP DP  RH WIND       PRES   REMARKS
NORFOLK        SUNNY     50  29  44 W8        30.22F
VIRGINIA BEACH PTSUNNY   49  29  46 NW13      30.20F
NORFOLK NAVAL  PTSUNNY   49  31  49 W14       30.23F
WEST POINT*    SUNNY     50  28  42 NW8       30.24F
SALUDA*        FAIR      48  33  55 NW12G18   30.22R
NEWPORT NEWS   SUNNY     50  29  44 NW14      30.22F
LANGLEY AFB    SUNNY     49  30  46 NW16      30.21F
FORT EUSTIS    SUNNY     50  31  47 NW9       30.20F
WILLIAMSBURG*  SUNNY     54  32  43 N3G16     30.23F
HR EXEC AP*    FAIR      50  30  46 NW6       30.21F
FRANKLIN*      SUNNY     50  30  46 N8        30.24F
US460-WAKEFLD  MOSUNNY   49  29  46 VRB7      30.24F
$$

VAZ020-022-025-037-045-031800-
WEST CENTRAL AND SOUTHWEST VIRGINIA

CITY           SKY/WX    TMP DP  RH WIND       PRES   REMARKS
STAUNTON*      CLOUDY    42  27  55 NW7       30.25F
WAYNESBORO*    FAIR      42  26  52 NW6       30.23F
HOT SPRINGS VA CLOUDY    30  27  86 W15       30.15F WCI  19
LYNCHBURG      MOSUNNY   43  26  51 VRB5      30.26F
DANVILLE       MOSUNNY   47  27  45 VRB7      30.28F
SOUTH BOSTON*  FAIR      46  25  44 CALM      30.28F
MARTINSVILLE   PTSUNNY   44  26  48 N8        30.30F
ROANOKE        PTSUNNY   43  26  51 NW6       30.28F
BLACKSBURG     CLOUDY    37  26  64 W5        30.27F
DUBLIN*        CLOUDY    38  27  63 N7        30.26F
MARION*        CLOUDY    37  28  69 W8        30.26F
HILLSVILLE*    PTSUNNY   34  26  72 N3        30.21F
RICHLANDS*     CLOUDY    33  28  80 N5        30.25F
WISE*          CLOUDY    36  28  75 CALM      30.26F
ABINGDON*      CLOUDY    40  29  65 SE5       30.27F
$$

MDZ021>025-VAZ099-100-031800-
SOUTHERN MARYLAND AND THE DELMARVA PENINSULA

CITY           SKY/WX    TMP DP  RH WIND       PRES   REMARKS
PATUXENT RIVER PTSUNNY   50  29  44 NW17      30.19F
BAY BRIDGE APT SUNNY     50  32  50 NW16      30.18F
LEONARDTOWN    MOSUNNY   48  28  46 NW9G17    30.21F
DOVER          SUNNY     50  33  52 NW20      30.11F
GEORGETOWN     MOSUNNY   50  29  44 NW16G29   30.14F
EASTON         SUNNY     50  28  43 NW20G26   30.20F
CAMBRIDGE      SUNNY     46  32  57 NW13G22   30.17F
SALISBURY      SUNNY     51  30  44 NW16G30   30.15F
OCEAN CITY     SUNNY     51  30  44 NW21G30   30.13F
WALLOPS ISLAND SUNNY     50  32  50 NW16G23   30.16S
ACCOMACK*      SUNNY     50  33  51 NW20G28   30.18S
$$

NCZ012>017-030>032-031800-
NORTH CENTRAL AND EASTERN NORTH CAROLINA

CITY           SKY/WX    TMP DP  RH WIND       PRES   REMARKS
ROANOKE RAPIDS FAIR      50  30  46 NW8       30.26F
RALEIGH        MOSUNNY   50  26  39 N5        30.28F
ELIZABETH CITY SUNNY     51  29  42 NW16      30.22F
AHOSKIE*       SUNNY     49  28  44 NW6       30.25F
EDENTON*       SUNNY     52  31  44 N12       30.25S
CURRITUCK*     SUNNY     51  30  44 N10       30.22F
KILL DEVIL HLS SUNNY     50  35  56 N7        30.20S
MANTEO         SUNNY     50  32  49 N13G21    30.22S
CAPE HATTERAS  SUNNY     51  33  50 N9G17     30.21F
TARBORO*       NOT AVBL
GOLDSBORO      MOSUNNY   51  27  39 N9        30.25F
WASHINGTON     SUNNY     51  30  43 NW8       30.25F
GREENVILLE     SUNNY     50  30  46 N8G16     30.26F
NEW BERN       SUNNY     51  29  42 N9        30.26F
WILMINGTON     SUNNY     51  30  44 N8G18     30.27F
$$

VAZ048-031800-
ELSEWHERE

CITY           SKY/WX    TMP DP  RH WIND       PRES   REMARKS
HARRISBURG PA  CLOUDY    46  32  58 NW17      30.15F
BALTIMORE      PTSUNNY   50  30  46 NW16G29   30.18F
ANNAPOLIS      SUNNY     50  31  48 NW16G28   30.18F
ANDREWS AFB    SUNNY     48  28  45 NW23      30.19F
PHILADELPHIA   PTSUNNY   49  28  44 W16       30.12F
HENDERSON NC   SUNNY     46  25  43 NE8       30.27F
GREENSBORO     PTSUNNY   49  27  42 VRB3      30.25F
ROCKY MOUNT    SUNNY     50  28  42 N7        30.27F
$$

VAZ100-031800-
MARINE

STATION/POSITION TIME  TEMP    WIND        PRES    WAVE   SWELL
                       AIR SEA DIR/SP/G            HT/PER HT/PER
                 (UTC) (F)     (DEG/KT/KT) (MB)    (FT/S) (FT/S)
BRANDYWINE LGT   1642   47     330/ 16/ 23   N/A
CAPE MAY NJ      1648   48 47  320/ 20/ 27 1019.4F
LEWES DE         1642   48 49  320/ 25/ 31 1020.1F
OCEAN-CITY-INLET 1642   48 51  360/ 21/ 28 1020.5F
WACHAPREAGUE VA  1642   49 51  290/  7/ 16 1021.8F
THOMAS POINT MD  1700   48 49  330/ 22/ 28   N/A
GOOSES REEF MD   1700   48 50  360/ 17/ 21 1022.9    2/ 3
COVE POINT MD    1642   47     340/ 19/ 23 1022.8F
SOLOMONS ISLAND  1642   48 51  320/ 11/ 17   N/A
BISHOPS HEAD MD  1642   48 43  320/ 17/ 24 1022.5F
PINEY POINT MD   1642          340/ 18/ 20   N/A
POTOMAC MD       1700   48 51  320/ 17/ 21 1022.2    2/ 3
CAMBRIDGE MD     1642   47 47  310/ 17/ 21 1021.1F
LEWISETTA VA     1642   47 50  350/ 15/ 19 1022.7F
RAPPAHANNOCK LGT 1642          320/ 19/ 20 1023.0R
STINGRAY PT      1700   48     330/ 16/ 17 1023.4    1/ 3
YORK RVR RNG VA  1642   48     340/ 16/ 18 1022.7F
YORKTOWN VA      1642   47 52  310/ 19/ 23 1023.0S
JAMESTOWN VA     1700   48 53  310/ 14/ 17   N/A     1
DOMINION TERM VA 1642   47     310/ 16/ 19 1023.4F
KIPTOPEKE VA     1642      51  340/ 19/ 22   N/A
CHES BAY BRIDGE  1642   47 53  330/ 15/ 18 1023.1F
CAPE HENRY VA    1642   47     310/ 16/ 20   N/A
WILLOUBY STN VA  1642   47     300/ 11/ 13 1024.2F
S CRANEY ISL VA  1642   48     300/ 10/ 18 1023.3F
CAPE HENRY BUOY  1642      56                N/A     4/ 5
1ST LANDING BUOY 1700   47 53              1023.1    3/ 4
CAPE CHARLES BUO 1656      56                N/A     3/ 4
OFFSHORE WE BUOY 1651      57                N/A     5/ 5
64NM E OF VA BCH 1650   49 60  330/ 19/ 25 1021.0F   8/ 7
DUCK PIER NC     1642   48 56  330/ 18/ 23 1022.2F
44100 DUCK FRF   1635      57                N/A     5/ 7
OREGON INLET NC  1642   49 56  330/ 11/ 18 1022.6F
HATTERAS NC      1642   48 57  350/ 16/ 21 1022.2F
DIAMOND SHLS NC  1650   55 74  360/ 17/ 21 1022.2F   5/ 8   2/14
CAPE LOOKOUT NC  1600   48     340/  9/ 13 1024.4R
$$




USA.gov is the U.S. government's official web portal to all federal, state and local government web resources and services.